International Skating Union - Official Site

Essent ISU World Cup Berlin
December 6-8, 2013

Draw | Lap Times | Index | World Cup

Referee: Jacques  DE KONING  (NED)
Starter: Jouko  VESTERLUND  (FIN)
StartTime: EndTime: Air Temp: Ice Temp: Humidity:
15:34 16:34 17 ℃ -3.9 ℃ 30.4
Result Team Pursuit Men
Rankings as of Dec 8 2013 5:18PM
Rank: No.: Team: Nation: Time: Behind: Points:
Total 14
1 401 Netherlands (85) Douwe de Vries (82) Jan Blokhuijsen (81) Jorrit Bergsma NED NED 3:41.460.5 - 18.34 - (18.3)
1.0 - 31.61 - (13.2)
1.5 - 44.82 - (13.2)
2.0 - 58.12 - (13.2)
2.5 - 1:11.45 - (13.3)
3.0 - 1:25.24 - (13.7)
3.5 - 1:38.83 - (13.5)
4.0 - 1:52.36 - (13.5)
4.5 - 2:06.30 - (13.9)
5.0 - 2:19.83 - (13.5)
5.5 - 2:33.31 - (13.4)
6.0 - 2:46.89 - (13.5)
6.5 - 3:00.48 - (13.5)
7.0 - 3:14.09 - (13.6)
7.5 - 3:27.85 - (13.7)
8.0 - 3:41.46 - (13.6)
100
2 403 Korea (71) Cheol-Min Kim (78) Seung-Hoon Lee (70) Hyong-Jun Joo KOR KOR 3:41.920.5 - 18.13 - (18.1)
1.0 - 31.73 - (13.6)
1.5 - 45.29 - (13.5)
2.0 - 58.68 - (13.3)
2.5 - 1:12.16 - (13.4)
3.0 - 1:25.54 - (13.3)
3.5 - 1:38.91 - (13.3)
4.0 - 1:52.39 - (13.4)
4.5 - 2:05.93 - (13.5)
5.0 - 2:19.45 - (13.5)
5.5 - 2:33.13 - (13.6)
6.0 - 2:46.80 - (13.6)
6.5 - 3:00.77 - (13.9)
7.0 - 3:14.59 - (13.8)
7.5 - 3:28.38 - (13.7)
8.0 - 3:41.92 - (13.5)
0.46 80
3 407 Poland (108) Zbigniew Brodka (111) Konrad Niedzwiedzki (113) Jan Szymanski POL POL 3:43.810.5 - 17.85 - (17.8)
1.0 - 31.40 - (13.5)
1.5 - 45.13 - (13.7)
2.0 - 58.77 - (13.6)
2.5 - 1:12.52 - (13.7)
3.0 - 1:26.29 - (13.7)
3.5 - 1:39.79 - (13.5)
4.0 - 1:53.20 - (13.4)
4.5 - 2:06.93 - (13.7)
5.0 - 2:20.52 - (13.5)
5.5 - 2:34.24 - (13.7)
6.0 - 2:48.13 - (13.8)
6.5 - 3:01.95 - (13.8)
7.0 - 3:15.80 - (13.8)
7.5 - 3:29.85 - (14.0)
8.0 - 3:43.81 - (13.9)
2.35 70
4 404 Norway (100) Sverre Lunde Pedersen (96) Håvard Bøkko (99) Simen Spieler Nilsen NOR NOR 3:44.940.5 - 17.80 - (17.8)
1.0 - 31.54 - (13.7)
1.5 - 45.22 - (13.6)
2.0 - 58.99 - (13.7)
2.5 - 1:12.54 - (13.5)
3.0 - 1:26.03 - (13.4)
3.5 - 1:39.53 - (13.5)
4.0 - 1:53.13 - (13.5)
4.5 - 2:06.94 - (13.8)
5.0 - 2:21.03 - (14.0)
5.5 - 2:35.22 - (14.1)
6.0 - 2:49.41 - (14.1)
6.5 - 3:03.30 - (13.8)
7.0 - 3:17.16 - (13.8)
7.5 - 3:30.99 - (13.8)
8.0 - 3:44.94 - (13.9)
3.48 60
5 409 Germany (32) Patrick Beckert (31) Alexej Baumgärtner (38) Robert Lehmann GER GER 3:46.090.5 - 18.14 - (18.1)
1.0 - 31.70 - (13.5)
1.5 - 45.31 - (13.6)
2.0 - 58.89 - (13.5)
2.5 - 1:12.65 - (13.7)
3.0 - 1:26.10 - (13.4)
3.5 - 1:39.54 - (13.4)
4.0 - 1:53.17 - (13.6)
4.5 - 2:07.03 - (13.8)
5.0 - 2:21.08 - (14.0)
5.5 - 2:35.51 - (14.4)
6.0 - 2:50.12 - (14.6)
6.5 - 3:04.09 - (13.9)
7.0 - 3:18.03 - (13.9)
7.5 - 3:32.01 - (13.9)
8.0 - 3:46.09 - (14.0)
4.63 50
6 408 Russia (126) Ivan Skobrev (127) Denis Yuskov (121) Yevgeny Lalenkov RUS RUS 3:46.200.5 - 17.99 - (17.9)
1.0 - 31.53 - (13.5)
1.5 - 45.02 - (13.4)
2.0 - 58.74 - (13.7)
2.5 - 1:12.44 - (13.6)
3.0 - 1:26.19 - (13.7)
3.5 - 1:40.15 - (13.9)
4.0 - 1:54.11 - (13.9)
4.5 - 2:08.11 - (14.0)
5.0 - 2:22.27 - (14.1)
5.5 - 2:36.09 - (13.8)
6.0 - 2:49.88 - (13.7)
6.5 - 3:03.84 - (13.9)
7.0 - 3:17.94 - (14.0)
7.5 - 3:31.96 - (14.0)
8.0 - 3:46.20 - (14.2)
4.74 45
7 406 France (30) Benjamin Macé (29) Ewen Fernandez (28) Alexis Contin FRA FRA 3:46.670.5 - 18.04 - (18.0)
1.0 - 31.38 - (13.3)
1.5 - 44.86 - (13.4)
2.0 - 58.53 - (13.6)
2.5 - 1:12.41 - (13.8)
3.0 - 1:26.28 - (13.8)
3.5 - 1:40.26 - (13.9)
4.0 - 1:54.03 - (13.7)
4.5 - 2:07.81 - (13.7)
5.0 - 2:21.58 - (13.7)
5.5 - 2:35.56 - (13.9)
6.0 - 2:49.33 - (13.7)
6.5 - 3:03.40 - (14.0)
7.0 - 3:17.51 - (14.1)
7.5 - 3:32.10 - (14.5)
8.0 - 3:46.67 - (14.5)
5.21 40
8 405 Canada (14) Lucas Makowsky (11) Jordan Belchos (13) Mathieu Giroux CAN CAN 3:46.800.5 - 17.92 - (17.9)
1.0 - 31.41 - (13.4)
1.5 - 44.82 - (13.4)
2.0 - 58.42 - (13.6)
2.5 - 1:11.96 - (13.5)
3.0 - 1:25.69 - (13.7)
3.5 - 1:39.57 - (13.8)
4.0 - 1:53.43 - (13.8)
4.5 - 2:07.42 - (13.9)
5.0 - 2:21.53 - (14.1)
5.5 - 2:35.81 - (14.2)
6.0 - 2:49.95 - (14.1)
6.5 - 3:04.16 - (14.2)
7.0 - 3:18.54 - (14.3)
7.5 - 3:32.71 - (14.1)
8.0 - 3:46.80 - (14.0)
5.34 35
9 402 USA (136) Jonathan Kuck (137) Joey Mantia (133) Shani Davis USA USA 3:47.670.5 - 17.89 - (17.8)
1.0 - 31.40 - (13.5)
1.5 - 45.01 - (13.6)
2.0 - 58.71 - (13.7)
2.5 - 1:12.51 - (13.8)
3.0 - 1:26.34 - (13.8)
3.5 - 1:39.95 - (13.6)
4.0 - 1:53.57 - (13.6)
4.5 - 2:07.54 - (13.9)
5.0 - 2:21.79 - (14.2)
5.5 - 2:36.19 - (14.4)
6.0 - 2:50.44 - (14.2)
6.5 - 3:04.73 - (14.2)
7.0 - 3:18.81 - (14.0)
7.5 - 3:33.09 - (14.2)
8.0 - 3:47.67 - (14.5)
6.21 30
10 410 Italy (49) Andrea Giovannini (47) Marco Cignini (51) Luca Stefani ITA ITA 3:48.600.5 - 17.81 - (17.8)
1.0 - 31.48 - (13.6)
1.5 - 45.24 - (13.7)
2.0 - 58.86 - (13.6)
2.5 - 1:12.74 - (13.8)
3.0 - 1:26.49 - (13.7)
3.5 - 1:40.50 - (14.0)
4.0 - 1:54.40 - (13.9)
4.5 - 2:08.34 - (13.9)
5.0 - 2:22.43 - (14.0)
5.5 - 2:36.52 - (14.0)
6.0 - 2:50.96 - (14.4)
6.5 - 3:05.52 - (14.5)
7.0 - 3:20.07 - (14.5)
7.5 - 3:34.26 - (14.1)
8.0 - 3:48.60 - (14.3)
7.14 25
11 412 Japan (57) Shota Nakamura (60) Shane Williamson (53) Seitaro Ichinohe JPN JPN 3:51.180.5 - 18.27 - (18.2)
1.0 - 32.25 - (13.9)
1.5 - 46.06 - (13.8)
2.0 - 1:00.07 - (14.0)
2.5 - 1:13.82 - (13.7)
3.0 - 1:27.56 - (13.7)
3.5 - 1:41.42 - (13.8)
4.0 - 1:55.20 - (13.7)
4.5 - 2:09.40 - (14.2)
5.0 - 2:23.85 - (14.4)
5.5 - 2:38.24 - (14.3)
6.0 - 2:52.85 - (14.6)
6.5 - 3:07.71 - (14.8)
7.0 - 3:22.11 - (14.4)
7.5 - 3:36.64 - (14.5)
8.0 - 3:51.18 - (14.5)
9.72 21
12 414 Austria (4) Bram Smallenbroek (2) Armin Hager (3) Linus Heidegger AUT AUT 3:53.550.5 - 18.20 - (18.1)
1.0 - 32.11 - (13.9)
1.5 - 46.12 - (14.0)
2.0 - 1:00.12 - (14.0)
2.5 - 1:14.44 - (14.3)
3.0 - 1:28.56 - (14.1)
3.5 - 1:42.81 - (14.2)
4.0 - 1:57.07 - (14.2)
4.5 - 2:11.33 - (14.2)
5.0 - 2:25.74 - (14.4)
5.5 - 2:40.47 - (14.7)
6.0 - 2:55.08 - (14.6)
6.5 - 3:10.05 - (14.9)
7.0 - 3:24.58 - (14.5)
7.5 - 3:39.15 - (14.5)
8.0 - 3:53.55 - (14.3)
12.09 18
13 413 New Zealand (104) Shane Dobbin (103) Kalon Dobbin (106) Reyon Kay NZL NZL 3:55.510.5 - 18.76 - (18.7)
1.0 - 32.89 - (14.1)
1.5 - 46.79 - (13.8)
2.0 - 1:00.82 - (14.0)
2.5 - 1:15.00 - (14.1)
3.0 - 1:29.16 - (14.1)
3.5 - 1:43.24 - (14.0)
4.0 - 1:57.34 - (14.1)
4.5 - 2:11.50 - (14.1)
5.0 - 2:25.75 - (14.2)
5.5 - 2:40.14 - (14.3)
6.0 - 2:54.96 - (14.8)
6.5 - 3:09.80 - (14.8)
7.0 - 3:24.99 - (15.1)
7.5 - 3:40.30 - (15.3)
8.0 - 3:55.51 - (15.2)
14.05 16
14 415 China (20) Guojun Tian (19) Longjiang Sun (17) Yan Liu CHN CHN 3:58.700.5 - 18.89 - (18.8)
1.0 - 32.91 - (14.0)
1.5 - 47.14 - (14.2)
2.0 - 1:01.52 - (14.3)
2.5 - 1:15.93 - (14.4)
3.0 - 1:29.88 - (13.9)
3.5 - 1:44.06 - (14.1)
4.0 - 1:58.32 - (14.2)
4.5 - 2:12.86 - (14.5)
5.0 - 2:27.56 - (14.6)
5.5 - 2:42.55 - (14.9)
6.0 - 2:57.29 - (14.7)
6.5 - 3:12.33 - (15.0)
7.0 - 3:28.14 - (15.8)
7.5 - 3:43.63 - (15.4)
8.0 - 3:58.70 - (15.0)
17.24 14